Roswell, NM

12:24 AM MDT on June 26, 2017 (GMT -0600)
Roswell Industrial

Weather History for KROW - July, 2012

Change the Weather History Date:

Wednesday, July 18, 2012

  Actual Average Record
Temperature  
Mean Temperature 82 °F 80 °F  
Max Temperature 96 °F 94 °F 103 °F (1978)
Min Temperature 68 °F 67 °F 57 °F (1905)
Degree Days  
Heating Degree Days 0 0  
Month to date heating degree days 0 0  
Since 1 June heating degree days 0 1  
Since 1 July heating degree days 0 0  
Cooling Degree Days 17 15  
Month to date cooling degree days 309 282  
Year to date cooling degree days 1232 904  
Since 1 June cooling degree days 859 679  
Growing Degree Days 32 (Base 50)    
Moisture  
Dew Point 53 °F    
Average Humidity 43    
Maximum Humidity 66    
Minimum Humidity 19    
Precipitation  
Precipitation 0.00 in 0.06 in 1.29 in (1939)
Month to date precipitation 0.62 1.27  
Year to date precipitation 2.67 6.17  
Sea Level Pressure  
Sea Level Pressure 29.83 in    
Wind  
Wind Speed 10 mph (SE)    
Max Wind Speed 18 mph    
Max Gust Speed 24 mph    
Visibility 10 miles    
Events      
T = Trace of Precipitation, MM = Missing Value Source: NWS Daily Summary

Daily Weather History Graph

Daily Weather History Graph

Search for Another Location

Airport or City:

Trip Planner

Search our weather history database for the weather conditions in past years. The results will help you decide how hot, cold, wet, or windy it might be!

Date:

Astronomy

Jul. 18, 2012 Rise Set
Actual Time 6:01 AM MDT 8:06 PM MDT
Civil Twilight 5:33 AM MDT 8:34 PM MDT
Nautical Twilight 4:59 AM MDT 9:08 PM MDT
Astronomical Twilight 4:23 AM MDT 9:44 PM MDT
Moon 5:36 AM MDT (7/18) 7:41 PM MDT (7/18)
Length of Visible Light 15h 00m
Length of Day
14h 04m
Waning Crescent, 0% of the Moon is Illuminated
Jul 18
Waning Crescent
Jul 18
New
Jul 26
First Quarter
Aug 1
Full
Aug 9
Last Quarter

Hourly Weather History & Observations

Time (MDT) Temp. Heat Index Dew Point Humidity Pressure Visibility Wind Dir Wind Speed Gust Speed Precip Events Conditions
12:51 AM 79.0 °F - 53.1 °F 40% 29.77 in 10.0 mi SSE 5.8 mph - N/A   Clear
1:51 AM 75.0 °F - 54.0 °F 48% 29.77 in 10.0 mi SSE 5.8 mph - N/A   Clear
2:51 AM 71.1 °F - 54.0 °F 55% 29.78 in 10.0 mi SSW 6.9 mph - N/A   Clear
3:51 AM 71.1 °F - 55.0 °F 57% 29.78 in 10.0 mi SE 9.2 mph - N/A   Clear
4:51 AM 72.0 °F - 57.0 °F 59% 29.80 in 10.0 mi South 9.2 mph - N/A   Clear
5:51 AM 70.0 °F - 57.0 °F 63% 29.82 in 10.0 mi SSE 4.6 mph - N/A   Clear
6:51 AM 70.0 °F - 57.0 °F 63% 29.84 in 10.0 mi SSW 3.5 mph - N/A   Clear
7:51 AM 75.9 °F - 59.0 °F 56% 29.87 in 10.0 mi SE 9.2 mph - N/A   Clear
8:51 AM 80.1 °F 80.9 °F 60.1 °F 50% 29.88 in 10.0 mi South 13.8 mph - N/A   Partly Cloudy
9:51 AM 82.9 °F 82.8 °F 59.0 °F 44% 29.88 in 10.0 mi SSE 12.7 mph - N/A   Clear
10:51 AM 86.0 °F 85.4 °F 59.0 °F 40% 29.88 in 10.0 mi SSE 9.2 mph - N/A   Clear
11:51 AM 89.1 °F 87.7 °F 57.0 °F 34% 29.87 in 10.0 mi ESE 12.7 mph 17.3 mph N/A   Clear
12:51 PM 91.0 °F 88.7 °F 54.0 °F 28% 29.86 in 10.0 mi SSE 11.5 mph - N/A   Clear
1:51 PM 95.0 °F 92.5 °F 53.1 °F 24% 29.84 in 10.0 mi SSE 12.7 mph 21.9 mph N/A   Clear
2:51 PM 95.0 °F 92.5 °F 53.1 °F 24% 29.82 in 10.0 mi ESE 12.7 mph 23.0 mph N/A   Partly Cloudy
3:51 PM 93.9 °F - 51.1 °F 23% 29.80 in 10.0 mi SE 13.8 mph 19.6 mph N/A   Scattered Clouds
4:51 PM 95.0 °F - 48.0 °F 20% 29.78 in 10.0 mi East 10.4 mph - N/A   Mostly Cloudy
5:51 PM 95.0 °F - 46.9 °F 19% 29.77 in 10.0 mi ESE 15.0 mph 18.4 mph N/A   Clear
6:51 PM 93.0 °F - 48.0 °F 21% 29.77 in 10.0 mi SE 12.7 mph - N/A   Clear
7:51 PM 90.0 °F - 46.9 °F 23% 29.80 in 10.0 mi SE 8.1 mph - N/A   Clear
8:51 PM 84.9 °F - 51.1 °F 31% 29.83 in 10.0 mi ESE 6.9 mph - N/A   Clear
9:51 PM 81.0 °F - 50.0 °F 34% 29.87 in 10.0 mi SE 5.8 mph - N/A   Clear
10:51 PM 80.1 °F - 50.0 °F 35% 29.88 in 10.0 mi SSE 6.9 mph - N/A   Clear
11:51 PM 78.1 °F - 48.9 °F 36% 29.89 in 10.0 mi SSE 6.9 mph - N/A   Clear